Wind_Speed
12 12 12 13 14 15 15 15 16 16 17 17 17 17 18 19 20 21 22 22 23 23 23 23 23 23 23 23 23 23 23 23 23 23 22 22 22 23 23 23 23 24 24
12 13 14 15 16 16 16 17 18 18 19 19 20 20 21 21 22 23 24 24 25 25 25 25 25 26 26 26 26 26 26 25 25 25 25 25 24 25 25 26 26 26 26
13 14 15 16 17 17 18 19 20 20 21 21 22 23 23 24 25 26 26 26 27 27 27 27 27 27 28 28 28 28 28 28 28 27 27 27 27 27 27 27 28 28 28
13 15 16 17 17 18 19 20 22 23 23 24 24 25 26 27 27 28 28 28 28 29 29 29 29 29 30 30 30 30 31 30 30 30 30 30 30 30 30 30 29 29 29
15 16 17 18 19 20 21 22 23 24 25 26 26 27 28 28 29 30 31 31 31 31 31 31 31 32 32 32 32 32 32 32 32 32 32 33 33 33 32 32 31 31 31
19 20 21 21 22 23 24 24 25 27 28 28 29 29 30 30 31 32 33 33 33 33 33 33 33 33 34 34 34 34 34 34 34 35 35 35 36 35 35 35 35 34 33
23 24 25 25 26 27 27 28 29 30 30 30 31 31 32 32 34 34 35 35 35 35 35 35 35 36 36 36 36 37 37 38 38 38 38 38 38 38 37 37 37 36 35
27 28 29 30 31 31 31 31 32 31 32 32 33 33 34 35 36 37 38 39 38 37 38 38 38 38 39 40 40 40 40 40 40 41 41 40 40 40 41 40 39 39 38
30 30 30 31 33 34 33 33 33 34 35 36 37 37 37 37 38 39 41 41 39 39 40 41 41 41 42 44 44 44 44 43 44 45 44 43 43 43 44 44 43 43 41
32 31 32 32 33 33 34 34 35 35 36 37 38 38 39 39 39 40 41 41 41 40 40 41 42 43 44 45 46 47 47 47 48 48 47 47 46 46 46 47 47 46 45
32 33 34 35 36 36 37 36 36 36 37 38 39 40 41 42 41 41 42 42 43 43 43 44 45 46 47 48 49 49 49 50 51 51 51 51 50 50 49 50 50 49 48
34 34 35 35 36 36 36 35 36 37 38 40 41 42 42 42 42 43 44 44 45 46 47 48 49 51 51 52 52 53 54 55 55 55 55 54 54 53 53 52 52 51 51
34 35 36 35 35 35 36 37 38 38 38 39 40 41 42 42 43 45 46 47 48 49 50 52 53 55 56 56 57 57 58 59 60 60 59 59 58 57 56 55 53 52 51
34 34 34 34 35 36 36 36 37 37 38 40 41 42 43 45 46 47 49 50 52 54 55 57 58 59 60 61 61 62 63 63 64 63 62 61 60 58 57 56 55 53 52
31 32 32 33 34 34 35 36 37 39 41 42 43 44 45 47 49 52 54 55 57 59 60 61 62 63 64 64 65 65 65 65 65 63 62 61 59 59 58 56 55 54 52
32 33 34 35 35 36 37 38 40 41 42 44 45 47 49 52 54 56 58 60 61 63 64 64 65 66 66 67 67 66 65 65 64 62 61 60 60 58 57 56 55 54 54
35 36 36 37 38 39 40 41 43 44 46 47 49 51 53 55 57 59 60 61 62 63 64 64 64 65 65 65 64 64 63 62 62 61 60 58 56 55 55 54 54 53 52
37 38 38 39 40 42 43 44 46 48 49 51 53 55 56 57 59 60 60 60 60 61 61 61 61 61 61 60 59 58 57 56 56 56 55 54 52 51 50 49 49 49 50
38 39 40 41 43 44 46 48 50 51 53 55 56 57 57 58 59 59 59 58 58 57 57 57 56 55 54 53 52 51 51 50 49 48 47 47 46 45 45 45 45 45 45
39 41 42 43 45 47 48 50 51 53 54 56 56 56 56 56 56 55 55 54 53 53 52 51 50 48 47 46 45 45 44 43 42 41 40 40 40 40 40 40 40 40 40
42 44 45 46 48 49 50 51 52 53 53 53 53 53 53 52 52 51 50 50 49 48 47 45 43 42 41 41 40 39 38 37 36 36 36 36 35 35 35 34 35 35 36
45 46 47 48 49 49 49 50 50 50 50 50 49 48 47 47 46 45 45 44 43 42 40 38 37 37 36 36 35 33 32 31 31 30 30 30 29 29 28 29 31 31 32
46 47 47 47 47 47 47 47 47 46 46 45 44 43 42 41 39 39 39 37 36 35 34 32 32 31 31 31 29 28 27 26 26 25 24 24 25 25 25 26 26 27 28
45 45 45 45 44 44 44 44 43 42 41 40 40 39 37 36 35 34 33 32 31 30 29 28 28 27 25 24 23 23 22 22 21 20 20 20 20 20 21 21 22 23 24
43 43 42 41 41 41 40 39 38 37 36 36 35 34 32 31 30 30 29 28 27 26 26 24 23 21 20 20 19 19 18 17 16 16 16 16 16 16 17 18 19 19 20
41 40 39 38 38 37 35 35 34 33 32 31 30 28 27 26 26 26 24 23 23 22 21 20 19 18 17 17 16 16 15 14 13 13 13 12 12 12 13 14 15 16 17
Wind_Direction
234 234 236 239 242 246 245 249 254 259 263 267 270 274 278 282 286 288 290 293 295 296 298 299 300 300 300 300 301 301 301 301 302 303 302 300 297 296 295 293 291 290 288
242 242 244 247 249 249 251 254 258 262 266 270 273 276 279 282 285 287 289 291 293 294 295 295 296 296 297 297 297 297 296 296 297 298 299 298 296 294 294 292 291 290 288
250 249 251 253 253 255 257 259 263 266 269 272 275 278 280 282 284 286 288 289 290 291 292 292 292 293 294 294 294 294 294 293 293 293 294 294 294 293 292 291 290 289 287
258 256 256 257 258 260 262 264 267 269 271 273 276 278 280 282 283 285 286 287 288 288 289 289 289 290 290 291 291 292 292 291 291 291 291 292 292 292 291 290 289 288 287
266 265 265 266 265 266 267 268 270 271 273 274 276 278 279 280 282 283 284 285 285 286 286 286 287 288 288 288 289 290 290 289 289 290 290 290 290 289 288 288 288 287 287
270 269 269 269 271 271 271 271 271 272 273 275 275 276 278 280 281 281 282 283 283 284 284 285 286 287 288 289 288 289 289 289 288 289 289 289 288 288 287 287 287 287 287
274 274 273 272 272 272 272 272 273 273 273 275 275 275 277 279 280 280 280 281 282 283 283 283 284 286 286 286 286 287 288 288 288 288 288 288 287 287 286 286 287 287 287
278 277 275 273 274 273 273 274 273 273 274 275 276 276 278 279 279 280 280 281 281 282 282 283 284 285 285 285 286 285 286 286 286 286 287 287 286 286 285 285 286 286 287
277 276 277 277 278 275 273 275 277 279 280 279 277 278 278 279 279 280 281 282 283 283 282 283 284 285 284 285 286 286 286 286 286 285 285 284 284 284 284 284 285 285 285
279 277 279 281 279 276 274 275 278 280 281 280 280 280 281 282 283 282 283 283 284 284 285 285 284 285 285 285 285 285 285 286 285 285 285 284 283 283 283 283 283 283 283
280 282 282 282 280 278 278 277 279 281 282 282 283 283 284 285 284 284 284 284 285 285 285 286 286 285 286 285 285 285 284 284 284 284 285 284 283 283 282 281 281 281 281
281 282 282 281 283 281 281 281 281 282 283 284 283 284 285 285 285 286 286 287 286 286 287 287 287 287 287 286 286 285 285 284 283 283 283 283 282 281 280 279 278 278 278
283 283 282 281 283 283 282 284 285 286 287 287 286 285 286 287 289 289 289 288 288 288 288 287 287 287 287 287 286 285 284 284 283 282 282 282 281 280 279 278 277 276 274
285 284 282 282 284 284 285 286 286 286 287 289 289 289 290 290 290 290 291 290 289 289 288 288 288 288 287 287 286 285 284 284 283 283 282 281 279 278 277 276 274 274 272
286 287 288 287 288 289 289 289 289 289 290 291 292 293 293 293 293 293 292 292 291 290 289 288 288 287 286 286 285 285 284 283 283 282 280 279 277 276 275 274 272 271 270
287 287 287 289 289 289 289 289 290 291 292 292 293 294 294 294 293 293 292 292 291 291 290 289 289 288 287 287 286 285 283 282 281 280 278 277 276 274 272 271 270 269 267
289 289 290 291 291 292 293 293 293 293 294 294 294 294 294 294 294 294 293 292 292 291 290 290 290 289 288 287 286 285 283 282 281 279 278 276 275 273 270 268 267 265 264
288 289 291 292 293 294 294 295 295 295 295 295 296 296 296 296 295 294 294 293 292 292 292 291 291 290 290 289 288 287 285 283 281 280 277 275 273 272 270 268 266 263 261
290 291 293 294 294 295 295 295 295 296 296 297 297 297 297 297 296 296 295 294 294 293 293 293 293 292 292 290 288 287 286 285 283 280 278 275 272 270 267 265 264 263 260
295 295 295 296 297 296 296 296 297 297 298 298 298 298 298 299 298 298 297 297 297 297 296 295 294 294 293 292 290 289 289 286 283 280 277 275 272 269 266 264 263 261 259
297 297 297 298 298 298 298 298 298 299 299 299 299 299 299 299 299 299 299 299 299 299 298 296 296 296 295 294 293 291 289 287 284 280 276 275 274 270 266 263 262 261 258
300 299 299 299 299 300 299 299 299 300 300 301 301 301 301 301 301 301 301 301 300 300 300 298 298 298 298 297 296 293 291 288 286 282 279 277 275 272 267 264 262 261 258
300 300 300 301 301 301 301 301 301 302 302 302 302 302 302 302 303 304 305 304 304 304 304 303 302 302 301 301 299 296 294 291 289 286 282 281 278 274 270 266 264 263 260
301 301 302 302 302 302 302 302 302 303 303 303 303 303 304 304 305 306 307 307 307 307 307 305 305 305 305 306 306 304 301 298 294 289 284 283 280 274 270 265 261 260 258
301 302 303 303 303 303 303 303 303 303 304 304 304 304 305 306 308 309 310 311 312 312 311 309 309 309 309 312 313 311 310 307 302 296 291 287 283 277 272 266 261 259 258
302 303 303 303 303 303 303 304 304 305 306 306 307 307 307 309 311 313 314 315 316 318 318 316 313 314 315 316 317 319 321 319 313 307 302 294 289 282 273 266 264 263 262
Height
5846 5848 5851 5852 5854 5856 5857 5859 5860 5861 5862 5862 5863 5863 5863 5863 5863 5862 5862 5861 5860 5859 5858 5857 5856 5855 5853 5852 5851 5849 5848 5846 5845 5843 5842 5841 5839 5838 5837 5835 5834 5833 5832
5844 5846 5848 5849 5851 5852 5854 5855 5856 5856 5857 5857 5858 5858 5858 5858 5857 5857 5856 5856 5855 5854 5853 5851 5850 5849 5848 5846 5845 5843 5842 5841 5839 5837 5836 5835 5834 5832 5830 5829 5828 5827 5826
5842 5843 5844 5846 5847 5848 5849 5850 5851 5851 5852 5852 5852 5852 5852 5852 5851 5851 5850 5849 5848 5847 5846 5845 5844 5842 5841 5839 5838 5837 5835 5834 5832 5831 5829 5828 5826 5825 5824 5822 5821 5819 5818
5839 5840 5841 5841 5842 5843 5844 5845 5845 5846 5846 5846 5846 5846 5845 5845 5844 5844 5843 5842 5841 5840 5839 5838 5836 5835 5834 5832 5831 5829 5828 5826 5825 5823 5822 5820 5819 5817 5816 5814 5813 5811 5810
5835 5835 5836 5837 5837 5838 5838 5839 5839 5839 5839 5839 5839 5838 5838 5837 5837 5836 5835 5834 5833 5832 5831 5830 5829 5827 5826 5824 5822 5821 5819 5818 5816 5815 5813 5812 5810 5808 5807 5806 5804 5803 5801
5830 5831 5831 5831 5831 5832 5832 5832 5832 5831 5831 5831 5830 5829 5829 5829 5828 5827 5826 5825 5825 5824 5822 5821 5820 5818 5817 5815 5813 5811 5810 5809 5807 5805 5804 5802 5800 5799 5797 5796 5794 5793 5792
5824 5824 5824 5824 5824 5824 5824 5824 5823 5822 5822 5822 5822 5821 5820 5819 5818 5818 5816 5816 5815 5814 5813 5811 5810 5809 5807 5805 5803 5801 5800 5798 5796 5795 5793 5791 5790 5788 5786 5785 5783 5782 5781
5817 5817 5817 5815 5816 5815 5815 5815 5814 5813 5812 5812 5812 5812 5811 5810 5809 5808 5806 5805 5805 5804 5802 5801 5799 5798 5796 5794 5792 5791 5789 5787 5785 5783 5781 5780 5778 5776 5774 5773 5772 5771 5770
5808 5808 5808 5807 5806 5805 5806 5805 5805 5804 5803 5803 5802 5802 5801 5800 5798 5797 5795 5794 5794 5793 5791 5789 5788 5786 5784 5781 5779 5778 5777 5775 5773 5770 5769 5768 5766 5764 5761 5760 5759 5757 5757
5801 5799 5800 5799 5797 5795 5796 5796 5796 5795 5794 5793 5792 5791 5790 5789 5787 5786 5784 5782 5781 5780 5779 5777 5775 5773 5771 5769 5766 5765 5763 5761 5758 5756 5754 5754 5752 5751 5748 5746 5744 5743 5742
5793 5793 5792 5791 5789 5787 5787 5786 5785 5785 5784 5783 5782 5780 5779 5777 5776 5774 5772 5770 5769 5767 5765 5764 5761 5759 5757 5755 5752 5750 5748 5746 5743 5741 5740 5738 5736 5735 5733 5731 5729 5727 5727
5786 5784 5783 5782 5780 5779 5778 5777 5775 5775 5774 5772 5771 5769 5767 5765 5763 5761 5760 5758 5755 5753 5751 5749 5747 5744 5742 5739 5736 5734 5731 5728 5726 5724 5723 5721 5720 5718 5716 5715 5713 5712 5711
5777 5775 5773 5772 5772 5770 5769 5768 5766 5764 5762 5761 5759 5757 5755 5753 5751 5749 5747 5744 5741 5739 5736 5734 5731 5728 5724 5722 5719 5716 5713 5710 5707 5705 5704 5703 5701 5699 5697 5696 5695 5694 5694
5768 5767 5765 5763 5762 5761 5759 5758 5756 5754 5752 5750 5748 5745 5743 5740 5738 5735 5732 5729 5726 5723 5720 5717 5713 5710 5706 5703 5700 5696 5693 5690 5686 5684 5683 5681 5680 5678 5677 5676 5676 5675 5675
5759 5758 5756 5754 5753 5751 5749 5747 5745 5743 5740 5738 5735 5732 5730 5727 5723 5720 5716 5712 5708 5705 5701 5698 5694 5690 5686 5683 5679 5675 5671 5668 5665 5663 5661 5659 5658 5657 5657 5656 5656 5656 5656
5751 5749 5747 5745 5743 5741 5739 5736 5733 5731 5728 5725 5722 5719 5715 5711 5707 5703 5698 5694 5689 5684 5681 5677 5672 5668 5664 5660 5656 5652 5649 5645 5642 5640 5638 5637 5636 5635 5635 5635 5635 5636 5637
5741 5739 5736 5734 5732 5729 5727 5724 5721 5718 5715 5711 5708 5704 5700 5695 5690 5685 5680 5675 5670 5664 5660 5655 5650 5646 5641 5637 5633 5629 5625 5623 5620 5617 5616 5615 5614 5613 5613 5614 5615 5616 5618
5730 5728 5726 5723 5720 5717 5714 5711 5708 5704 5700 5696 5691 5687 5682 5678 5672 5667 5661 5656 5651 5645 5639 5634 5630 5625 5620 5615 5611 5607 5603 5601 5598 5596 5594 5594 5593 5593 5593 5594 5595 5597 5599
5720 5717 5714 5711 5708 5705 5701 5697 5693 5689 5684 5680 5675 5669 5665 5659 5654 5648 5642 5637 5631 5626 5621 5615 5610 5605 5600 5595 5591 5588 5584 5581 5579 5576 5575 5575 5574 5574 5575 5576 5578 5579 5581
5709 5706 5703 5699 5695 5692 5688 5683 5678 5674 5668 5663 5658 5652 5647 5641 5636 5630 5624 5618 5613 5608 5602 5597 5592 5587 5582 5578 5574 5571 5568 5565 5562 5560 5559 5558 5558 5558 5559 5561 5562 5564 5566
5696 5693 5689 5685 5682 5677 5672 5667 5662 5657 5652 5647 5641 5636 5630 5625 5619 5613 5608 5602 5597 5591 5586 5581 5577 5573 5568 5564 5560 5556 5553 5551 5549 5547 5546 5545 5545 5545 5546 5547 5549 5551 5553
5684 5679 5675 5671 5667 5662 5657 5652 5647 5642 5637 5631 5626 5621 5616 5610 5605 5600 5594 5589 5583 5578 5573 5568 5564 5560 5556 5552 5548 5545 5542 5540 5538 5536 5535 5534 5534 5534 5535 5536 5538 5539 5542
5670 5666 5661 5657 5652 5647 5643 5638 5633 5627 5622 5617 5613 5608 5603 5598 5593 5588 5582 5577 5572 5567 5562 5558 5554 5550 5546 5542 5539 5536 5533 5531 5529 5527 5526 5526 5525 5525 5526 5527 5528 5530 5532
5657 5652 5648 5643 5639 5634 5629 5624 5620 5615 5610 5606 5601 5597 5592 5587 5582 5578 5573 5568 5563 5559 5554 5550 5546 5543 5539 5536 5532 5529 5526 5524 5522 5520 5519 5519 5518 5518 5518 5519 5521 5522 5524
5644 5640 5635 5631 5627 5622 5618 5613 5608 5604 5600 5595 5591 5587 5582 5578 5574 5569 5565 5560 5556 5552 5547 5543 5540 5537 5534 5531 5528 5524 5521 5519 5516 5515 5514 5514 5513 5513 5513 5514 5515 5517 5518
5632 5628 5624 5620 5616 5611 5607 5603 5599 5595 5591 5586 5582 5578 5574 5570 5566 5562 5558 5554 5550 5546 5542 5539 5536 5533 5530 5527 5525 5522 5519 5516 5514 5512 5511 5511 5510 5510 5510 5510 5511 5512 5513